This is the latest recevied weather packets stored in our database for station/object KA9CBS. If no packets are shown the sender has not sent any weather packets the latest 10 day(s).
| Time | Temp. | Humidity | Pressure | Rain* | Wind** | Luminosity | Snow |
|---|---|---|---|---|---|---|---|
| 1778079296 | 10° C | 90% | 1017.1 hPa | 0 mm | - | 96 W/m² | - |
| 1778078994 | 10° C | 91% | 1017.2 hPa | 0 mm | - | 113 W/m² | - |
| 1778078690 | 10° C | 92% | 1017.1 hPa | 0 mm | - | 118 W/m² | - |
| 1778078388 | 10° C | 93% | 1016.8 hPa | 0 mm | - | 113 W/m² | - |
| 1778078085 | 10° C | 94% | 1016.9 hPa | 0 mm | - | 120 W/m² | - |
| 1778077784 | 10° C | 94% | 1016.6 hPa | 0 mm | - | 107 W/m² | - |
| 1778077481 | 9.44° C | 95% | 1016.7 hPa | 0 mm | - | 117 W/m² | - |
| 1778077179 | 9.44° C | 95% | 1016.2 hPa | 0 mm | - | 151 W/m² | - |
| 1778076876 | 9.44° C | 96% | 1016.5 hPa | 0 mm | - | 107 W/m² | - |
| 1778076575 | 9.44° C | 97% | 1016.7 hPa | 0 mm | - | 89 W/m² | - |
| 1778076271 | 9.44° C | 97% | 1016.8 hPa | 0 mm | - | 69 W/m² | - |
| 1778075968 | 8.89° C | 97% | 1016.9 hPa | 0 mm | - | 65 W/m² | - |
| 1778075666 | 8.89° C | 97% | 1016.6 hPa | 0 mm | - | 63 W/m² | - |
| 1778075362 | 8.89° C | 98% | 1016.3 hPa | 0 mm | - | 63 W/m² | - |
| 1778075058 | 8.89° C | 98% | 1016.2 hPa | 0 mm | - | 62 W/m² | - |
| 1778074755 | 8.89° C | 98% | 1016.3 hPa | 0 mm | - | 56 W/m² | - |
| 1778074452 | 8.89° C | 98% | 1016.3 hPa | 0 mm | - | 49 W/m² | - |
| 1778074148 | 8.89° C | 98% | 1016.3 hPa | 0 mm | - | 49 W/m² | - |
| 1778073845 | 8.89° C | 98% | 1016.4 hPa | 0 mm | - | 55 W/m² | - |
| 1778073543 | 8.89° C | 98% | 1016.2 hPa | 0 mm | - | 60 W/m² | - |
| 1778073239 | 8.89° C | 98% | 1016.3 hPa | 0 mm | - | 58 W/m² | - |
| 1778072937 | 8.89° C | 98% | 1015.9 hPa | 0 mm | - | 42 W/m² | - |
| 1778072633 | 8.89° C | 99% | 1015.6 hPa | 0 mm | - | 79 W/m² | - |
| 1778072331 | 8.89° C | 99% | 1015.8 hPa | 0 mm | - | 83 W/m² | - |
| 1778072029 | 8.33° C | 99% | 1015.8 hPa | 0 mm | - | 64 W/m² | - |
* Rain latest hour (hover to see other rain measurements)
** Current wind speed in m/s (hover to see current wind gust speed)